Change the Weather History Date:

Tuesday, July 30, 2013

  Actual Average Record
Temperature  
Mean Temperature 48 °F -  
Max Temperature 66 °F - - ()
Min Temperature 30 °F - - ()
Degree Days  
Heating Degree Days 17    
Moisture  
Dew Point 42 °F    
Average Humidity 72    
Maximum Humidity 100    
Minimum Humidity 33    
Precipitation  
Precipitation 0.00 in - - ()
Sea Level Pressure  
Sea Level Pressure 30.19 in    
Wind  
Wind Speed - ()    
Max Wind Speed -    
Max Gust Speed -    
T = Trace of Precipitation, MM = Missing Value Source: Averaged Metar Reports

Daily Weather History Graph

Daily Weather History Graph

Search for Another Location

Airport or City:

Trip Planner

Search our weather history database for the weather conditions in past years. The results will help you decide how hot, cold, wet, or windy it might be!

Date:

Astronomy

Jul. 30, 2013 Rise Set
Actual Time 6:05 AM MDT 9:53 PM MDT
Civil Twilight 5:20 AM MDT 10:38 PM MDT
Nautical Twilight 4:17 AM MDT 11:40 PM MDT
Astronomical Twilight 2:32 AM MDT 1:53 AM MDT
Moon 12:34 AM MDT (7/30) 4:15 PM MDT (7/30)
Length of Visible Light 17h 17m
Length of Day
15h 48m
Last Quarter, 40% of the Moon is Illuminated
Jul 30
Last Quarter
Aug 6
New
Aug 14
First Quarter
Aug 20
Full
Aug 28
Last Quarter

Hourly Weather History & Observations

Time (MDT) Temp. Dew Point Humidity Pressure Visibility Wind Dir Wind Speed Gust Speed Precip Events Conditions
12:00 AM 44 °F 43 °F 96% 30.17 in - Calm Calm - -  
12:00 AM 43.7 °F 43.2 °F 98% 30.17 in - North - - N/A   Unknown
1:00 AM 41.4 °F 40.8 °F 98% 30.17 in - North - - N/A   Unknown
2:00 AM 38.3 °F 37.8 °F 98% 30.18 in - North - - N/A   Unknown
3:00 AM 35.1 °F 34.9 °F 99% 30.21 in - North - - N/A   Unknown
4:00 AM 34.0 °F 34.0 °F 100% 30.21 in - North - - N/A   Unknown
7:00 AM 31.1 °F 31.1 °F 100% 30.24 in - North - - N/A   Unknown
8:00 AM 39.2 °F 38.7 °F 98% 30.22 in - North - - N/A   Unknown
9:00 AM 49.5 °F 44.6 °F 83% 30.21 in - North - - N/A   Unknown
10:00 AM 52.9 °F 46.8 °F 80% 30.19 in - North - - N/A   Unknown
11:00 AM 55.9 °F 45.7 °F 68% 30.19 in - North - - N/A   Unknown
12:00 PM 60 °F 39 °F 33% 30.18 in - Calm Calm - -  
12:00 PM 59.5 °F 38.8 °F 46% 30.18 in - North - - N/A   Unknown
1:00 PM 58.8 °F 41.5 °F 53% 30.19 in - North - - N/A   Unknown
2:00 PM 59.2 °F 41.2 °F 51% 30.21 in - North - - N/A   Unknown
3:00 PM 61.2 °F 43.2 °F 52% 30.22 in - North - - N/A   Unknown
4:00 PM 61.5 °F 42.6 °F 50% 30.21 in - North - - N/A   Unknown
5:00 PM 62.2 °F 45.0 °F 53% 30.21 in - North - - N/A   Unknown
6:00 PM 62 °F 45 °F 43% 30.19 in - Calm Calm - -  
6:00 PM 61.9 °F 45.5 °F 55% 30.20 in - North - - N/A   Unknown
7:00 PM 66.6 °F 44.2 °F 44% 30.18 in - North - - N/A   Unknown
8:00 PM 61.5 °F 44.4 °F 53% 30.17 in - North - - N/A   Unknown
9:00 PM 57.0 °F 46.9 °F 69% 30.17 in - North - - N/A   Unknown
10:00 PM 47.5 °F 45.3 °F 92% 30.19 in - North - - N/A   Unknown
11:00 PM 44.8 °F 44.1 °F 97% 30.21 in - North - - N/A   Unknown